This demonstration page uses our WeatherBlox Daily Observations layout. Learn more.

Left ArrowRight Arrow

38.20091, -84.87328

Hourly Observations for July 13, 2019

Temp ( °F °C ) Dew Point ( °F °C ) Humidity (%) Winds ( mph kmh ) Pressure ( in mb ) Visibility ( mi km ) Precip ( " mm )
12:53 am 00:53 Clear 67 19.4 61 16.1 81 81 Calm 29.96 1014 10 16 0.00 0.00
2:53 am 02:53 Clear 64 17.8 62 16.7 93 93 Calm 29.96 1015 10 16 0.00 0.00
3:53 am 03:53 Clear 63 17.2 60 15.6 90 90 Calm 29.98 1015 10 16 0.00 0.00
4:53 am 04:53 Clear 63 17.2 61 16.1 93 93 Calm 29.98 1015 10 16 0.00 0.00
5:53 am 05:53 Clear 62 16.7 59 15 90 90 Calm 29.99 1016 10 16 0.00 0.00
6:53 am 06:53 Sunny 62 16.7 59 15 90 90 NNW 3 6 30.00 1016 10 16 0.00 0.00
7:53 am 07:53 Sunny 67 19.4 62 16.7 84 84 Calm 30.02 1017 10 16 0.00 0.00
8:53 am 08:53 Sunny 74 23.3 63 17.2 69 69 Calm 30.04 1017 10 16 0.00 0.00
9:53 am 09:53 Sunny 80 26.7 59 15 49 49 Calm 30.05 1018 10 16 0.00 0.00
10:53 am 10:53 Sunny 83 28.3 63 17.2 51 51 S 6 9 30.05 1018 10 16 0.00 0.00
11:53 am 11:53 Sunny 85 29.4 61 16.1 45 45 WSW 6 9 30.05 1018 10 16 0.00 0.00
12:53 pm 12:53 Sunny 87 30.6 60 15.6 40 40 WSW 6 9 30.05 1018 10 16 0.00 0.00
1:53 pm 13:53 Sunny 89 31.7 59 15 36 36 W 6 9 30.04 1017 10 16 0.00 0.00
2:53 pm 14:53 Sunny 90 32.2 60 15.6 37 37 VRB 3 6 30.02 1017 10 16 0.00 0.00
3:53 pm 15:53 Sunny 90 32.2 58 14.4 34 34 Calm 30.01 1016 10 16 0.00 0.00
4:53 pm 16:53 Sunny 91 32.8 60 15.6 35 35 Calm 30.00 1016 10 16 0.00 0.00
7:53 pm 19:53 Sunny 88 31.1 61 16.1 40 40 Calm 30.01 1016 10 16 0.00 0.00
8:53 pm 20:53 Sunny 79 26.1 64 17.8 60 60 Calm 30.01 1016 10 16 0.00 0.00
9:53 pm 21:53 Clear 76 24.4 62 16.7 62 62 Calm 30.03 1017 10 16 0.00 0.00
10:53 pm 22:53 Clear 73 22.8 61 16.1 66 66 Calm 30.05 1018 10 16 0.00 0.00
11:53 pm 23:53 Clear 70 21.1 63 17.2 79 79 NW 3 6 30.05 1018 10 16 0.00 0.00

Powered by AerisWeather